When you browse on this site, cookies collect data to enhance your experience and personalize the content and advertising you see.
Visit our Privacy Policy to learn more. By continuing to use the site, you agree to this use of cookies and data.
  • In Czech Republic
  • List of Countries
  • For 7 days
  • Water Temperature
  • Weather Map
  • Weather Widgets
  • user-avatar
    Login

    Hourly Weather Albany

    Today, 23 August, Friday

    Time Temperature Precipitation Wind Pressure Humidity
    00:00 +11°C° 0.9 mm 6 mps 755 mmHg 94%
    01:00 +11°C° 0.9 mm 6 mps 755 mmHg 94%
    02:00 +10°C° 0 mm 6 mps 755 mmHg 94%
    03:00 +10°C° 0.8 mm 6 mps 755 mmHg 92%
    04:00 +9°C° 0.8 mm 5 mps 755 mmHg 90%
    05:00 +9°C° 0.8 mm 5 mps 756 mmHg 88%
    06:00 +9°C° 0.4 mm 5 mps 756 mmHg 89%
    07:00 +8°C° 0.4 mm 5 mps 757 mmHg 90%
    08:00 +8°C° 0 mm 5 mps 757 mmHg 92%
    09:00 +9°C° 1 mm 5 mps 758 mmHg 89%
    10:00 +10°C° 1 mm 5 mps 759 mmHg 86%
    11:00 +11°C° 1 mm 6 mps 759 mmHg 83%
    12:00 +11°C° 0.6 mm 6 mps 759 mmHg 82%
    13:00 +11°C° 0.6 mm 6 mps 759 mmHg 81%
    14:00 +11°C° 0 mm 6 mps 760 mmHg 75%
    15:00 +10°C° 0.2 mm 6 mps 761 mmHg 78%
    16:00 +10°C° 0.2 mm 6 mps 761 mmHg 81%
    17:00 +9°C° 0.2 mm 5 mps 762 mmHg 83%
    18:00 +9°C° 0.2 mm 5 mps 763 mmHg 85%
    19:00 +8°C° 0.2 mm 5 mps 763 mmHg 86%
    20:00 +8°C° 0.2 mm 5 mps 764 mmHg 88%
    21:00 +7°C° 0.1 mm 5 mps 765 mmHg 87%
    22:00 +7°C° 0.1 mm 4 mps 765 mmHg 87%
    23:00 +7°C° 0.1 mm 4 mps 766 mmHg 86%

    Tomorrow, 24 August, Saturday

    Time Temperature Precipitation Wind Pressure Humidity
    00:00 +8°C° 0 mm 3 mps 766 mmHg 85%
    01:00 +8°C° 0 mm 3 mps 765 mmHg 84%
    02:00 +8°C° 0 mm 2 mps 765 mmHg 82%
    03:00 +8°C° 0 mm 2 mps 766 mmHg 81%
    04:00 +9°C° 0 mm 1 mps 766 mmHg 80%
    05:00 +10°C° 0 mm 1 mps 766 mmHg 78%
    06:00 +10°C° 0 mm 1 mps 766 mmHg 79%
    07:00 +10°C° 0 mm 1 mps 767 mmHg 79%
    08:00 +10°C° 0 mm 1 mps 767 mmHg 79%
    09:00 +11°C° 0 mm 1 mps 767 mmHg 76%
    10:00 +12°C° 0 mm 1 mps 767 mmHg 73%
    11:00 +11°C° 0 mm 0 mps 768 mmHg 69%
    12:00 +11°C° 0 mm 0 mps 767 mmHg 68%
    13:00 +12°C° 0 mm 0 mps 767 mmHg 66%
    14:00 +12°C° 0 mm 0 mps 766 mmHg 65%
    15:00 +12°C° 0 mm 1 mps 766 mmHg 67%
    16:00 +12°C° 0 mm 1 mps 767 mmHg 69%
    17:00 +12°C° 0 mm 1 mps 767 mmHg 71%
    18:00 +10°C° 0 mm 2 mps 767 mmHg 71%
    19:00 +10°C° 0 mm 2 mps 767 mmHg 70%
    20:00 +10°C° 0 mm 2 mps 767 mmHg 70%
    21:00 +9°C° 0 mm 2 mps 767 mmHg 71%
    22:00 +9°C° 0 mm 2 mps 767 mmHg 71%
    23:00 +9°C° 0 mm 2 mps 768 mmHg 71%

    Day after tomorrow, 25 August, Sunday

    Time Temperature Precipitation Wind Pressure Humidity
    00:00 +9°C° 0 mm 2 mps 767 mmHg 74%
    01:00 +8°C° 0 mm 2 mps 767 mmHg 77%
    02:00 +7°C° 0 mm 2 mps 766 mmHg 80%
    03:00 +7°C° 0 mm 2 mps 766 mmHg 82%
    04:00 +7°C° 0 mm 2 mps 766 mmHg 83%
    05:00 +7°C° 0 mm 2 mps 767 mmHg 85%
    06:00 +7°C° 0 mm 2 mps 766 mmHg 84%
    07:00 +8°C° 0 mm 2 mps 766 mmHg 83%
    08:00 +8°C° 0 mm 2 mps 766 mmHg 82%
    09:00 +10°C° 0 mm 2 mps 767 mmHg 74%
    10:00 +13°C° 0 mm 2 mps 767 mmHg 67%
    11:00 +15°C° 0 mm 2 mps 767 mmHg 60%
    12:00 +15°C° 0 mm 2 mps 766 mmHg 60%
    13:00 +15°C° 0 mm 1 mps 766 mmHg 61%
    14:00 +15°C° 0 mm 1 mps 765 mmHg 61%
    15:00 +14°C° 0 mm 1 mps 765 mmHg 65%
    16:00 +14°C° 0 mm 1 mps 765 mmHg 69%
    17:00 +13°C° 0 mm 1 mps 766 mmHg 73%
    18:00 +12°C° 0 mm 1 mps 766 mmHg 77%
    19:00 +11°C° 0 mm 1 mps 766 mmHg 80%
    20:00 +8°C° 0 mm 0 mps 766 mmHg 83%
    21:00 +8°C° 0 mm 0 mps 766 mmHg 85%
    22:00 +8°C° 0 mm 1 mps 766 mmHg 87%
    23:00 +8°C° 0 mm 1 mps 767 mmHg 88%

    26 August, Monday

    Time Temperature Precipitation Wind Pressure Humidity
    00:00 +8°C° 0 mm 1 mps 766 mmHg 89%
    01:00 +8°C° 0 mm 1 mps 766 mmHg 89%
    02:00 +8°C° 0 mm 1 mps 766 mmHg 89%
    03:00 +7°C° 0 mm 1 mps 766 mmHg 89%
    04:00 +6°C° 0 mm 2 mps 766 mmHg 89%
    05:00 +6°C° 0 mm 2 mps 766 mmHg 90%
    06:00 +7°C° 0 mm 2 mps 766 mmHg 88%
    07:00 +8°C° 0 mm 2 mps 766 mmHg 85%
    08:00 +9°C° 0 mm 2 mps 767 mmHg 83%
    09:00 +12°C° 0 mm 2 mps 767 mmHg 75%
    10:00 +14°C° 0 mm 1 mps 766 mmHg 67%
    11:00 +16°C° 0 mm 1 mps 766 mmHg 58%
    12:00 +18°C° 0 mm 1 mps 766 mmHg 58%
    13:00 +18°C° 0 mm 1 mps 765 mmHg 57%
    14:00 +19°C° 0 mm 1 mps 765 mmHg 56%
    15:00 +18°C° 0 mm 1 mps 765 mmHg 62%
    16:00 +16°C° 0 mm 2 mps 765 mmHg 67%
    17:00 +15°C° 0 mm 2 mps 765 mmHg 72%
    18:00 +13°C° 0 mm 2 mps 765 mmHg 76%
    19:00 +12°C° 0 mm 2 mps 765 mmHg 80%
    20:00 +9°C° 0 mm 3 mps 765 mmHg 84%
    21:00 +9°C° 0 mm 3 mps 765 mmHg 85%
    22:00 +9°C° 0 mm 3 mps 765 mmHg 86%
    23:00 +8°C° 0 mm 3 mps 765 mmHg 86%

    27 August, Tuesday

    Time Temperature Precipitation Wind Pressure Humidity
    00:00 +8°C° 0 mm 3 mps 765 mmHg 85%
    01:00 +8°C° 0 mm 3 mps 765 mmHg 83%
    02:00 +7°C° 0 mm 4 mps 765 mmHg 82%
    03:00 +7°C° 0 mm 3 mps 764 mmHg 82%
    04:00 +7°C° 0 mm 3 mps 764 mmHg 82%
    05:00 +7°C° 0 mm 3 mps 764 mmHg 83%
    06:00 +8°C° 0 mm 3 mps 764 mmHg 80%
    07:00 +8°C° 0 mm 3 mps 764 mmHg 77%
    08:00 +9°C° 0 mm 3 mps 764 mmHg 74%
    09:00 +11°C° 0 mm 3 mps 764 mmHg 67%
    10:00 +13°C° 0 mm 4 mps 764 mmHg 60%
    11:00 +17°C° 0 mm 4 mps 763 mmHg 53%
    12:00 +17°C° 0 mm 3 mps 763 mmHg 52%
    13:00 +18°C° 0 mm 3 mps 762 mmHg 51%
    14:00 +19°C° 0 mm 2 mps 761 mmHg 50%
    15:00 +18°C° 0 mm 2 mps 761 mmHg 55%
    16:00 +17°C° 0 mm 2 mps 761 mmHg 61%
    17:00 +16°C° 0 mm 2 mps 761 mmHg 66%
    18:00 +14°C° 0 mm 3 mps 761 mmHg 68%
    19:00 +13°C° 0 mm 4 mps 761 mmHg 69%
    20:00 +12°C° 0 mm 4 mps 761 mmHg 71%
    21:00 +12°C° 0 mm 4 mps 761 mmHg 73%
    22:00 +11°C° 0 mm 4 mps 761 mmHg 75%
    23:00 +10°C° 0 mm 5 mps 760 mmHg 77%

    28 August, Wednesday

    Time Temperature Precipitation Wind Pressure Humidity
    00:00 +10°C° 0 mm 5 mps 760 mmHg 76%
    01:00 +9°C° 0 mm 5 mps 759 mmHg 75%
    02:00 +9°C° 0 mm 5 mps 759 mmHg 74%
    03:00 +9°C° 0 mm 5 mps 758 mmHg 69%
    04:00 +9°C° 0 mm 5 mps 758 mmHg 64%
    05:00 +9°C° 0 mm 5 mps 757 mmHg 60%
    06:00 +10°C° 0 mm 5 mps 757 mmHg 58%
    07:00 +11°C° 0 mm 6 mps 757 mmHg 57%
    08:00 +13°C° 0 mm 6 mps 757 mmHg 56%
    09:00 +15°C° 0 mm 7 mps 757 mmHg 55%
    10:00 +17°C° 0 mm 7 mps 756 mmHg 54%
    11:00 +21°C° 0 mm 7 mps 756 mmHg 53%
    12:00 +21°C° 0 mm 6 mps 755 mmHg 54%
    13:00 +22°C° 0 mm 6 mps 755 mmHg 55%
    14:00 +23°C° 0 mm 6 mps 754 mmHg 56%
    15:00 +22°C° 0 mm 5 mps 754 mmHg 61%
    16:00 +21°C° 0 mm 4 mps 754 mmHg 67%
    17:00 +21°C° 0 mm 4 mps 754 mmHg 73%
    18:00 +19°C° 0 mm 3 mps 755 mmHg 79%
    19:00 +17°C° 0 mm 3 mps 755 mmHg 85%
    20:00 +14°C° 0 mm 3 mps 756 mmHg 91%
    21:00 +14°C° 0 mm 3 mps 756 mmHg 91%
    22:00 +14°C° 0 mm 2 mps 756 mmHg 92%
    23:00 +13°C° 0 mm 2 mps 756 mmHg 92%
    Show more